Location: Colebrook
(42.0017°N, 73.0973°W)
Time: 14:28:47
(UTC-04:00)

X-37B - Pass Details

Date: 28 September 2021
Orbit: 342 x 346 km, 45.0° (Epoch: 22 October)

Event Time Altitude Azimuth Distance (km) Brightness Sun altitude
Exits shadow 06:08:08 - 291° (WNW) 1,342 2.7 -7.9°
Reaches altitude 10° 06:08:15 10° 291° (WNW) 1,294 2.7 -7.9°
Maximum altitude 06:11:04 47° 7° (N) 465 1.1 -7.4°
Drops below altitude 10° 06:13:54 10° 84° (E) 1,295 5.1 -6.9°
Sets 06:15:57 0° 90° (E) 2,135 7.1 -6.5°
